| time (UTC) | temp F | wind direction | speed MPH | gust MPH | rain 1hr in | rain 24hr in | rain mn in | humidity % | barometer mb |
| 20260510142515 | 44 | 0 | 4.0 | 11.0 | 0.00 | 0.00 | 0.00 | 46 | 1017.6 |
| 20260510141515 | 45 | 0 | 6.0 | 15.0 | 0.00 | 0.00 | 0.00 | 45 | 1017.5 |
| 20260510140515 | 45 | 0 | 7.0 | 17.0 | 0.00 | 0.00 | 0.00 | 47 | 1017.5 |
| 20260510135518 | 45 | 0 | 6.0 | 15.0 | 0.00 | 0.00 | 0.00 | 48 | 1017.4 |
| 20260510134517 | 44 | 0 | 7.0 | 15.0 | 0.00 | 0.00 | 0.00 | 49 | 1017.3 |
| 20260510133517 | 43 | 0 | 5.0 | 12.0 | 0.00 | 0.00 | 0.00 | 52 | 1017.2 |
| 20260510132517 | 41 | 0 | 7.0 | 18.0 | 0.00 | 0.00 | 0.00 | 54 | 1017.1 |
| 20260510131517 | 41 | 0 | 8.0 | 17.0 | 0.00 | 0.00 | 0.00 | 56 | 1017.0 |
| 20260510130537 | 41 | 0 | 5.0 | 15.0 | 0.00 | 0.00 | 0.00 | 57 | 1016.9 |
| 20260510125517 | 41 | 0 | 8.0 | 16.0 | 0.00 | 0.00 | 0.00 | 57 | 1016.6 |
| 20260510124517 | 41 | 0 | 7.0 | 16.0 | 0.00 | 0.00 | 0.00 | 58 | 1016.3 |
| 20260510123517 | 42 | 0 | 6.0 | 14.0 | 0.00 | 0.00 | 0.00 | 58 | 1016.1 |
| 20260510122517 | 41 | 0 | 6.0 | 17.0 | 0.00 | 0.00 | 0.00 | 58 | 1016.0 |
| 20260510121517 | 41 | 0 | 4.0 | 11.0 | 0.00 | 0.00 | 0.00 | 60 | 1015.9 |
| 20260510120517 | 40 | 0 | 5.0 | 11.0 | 0.00 | 0.00 | 0.00 | 62 | 1015.9 |
| 20260510115517 | 39 | 0 | 3.0 | 10.0 | 0.00 | 0.00 | 0.00 | 65 | 1015.7 |
| 20260510114537 | 38 | 0 | 5.0 | 12.0 | 0.00 | 0.00 | 0.00 | 65 | 1015.7 |
| 20260510113517 | 37 | 23 | 2.0 | 8.0 | 0.00 | 0.00 | 0.00 | 66 | 1015.6 |
| 20260510112517 | 37 | 0 | 4.0 | 10.0 | 0.00 | 0.00 | 0.00 | 66 | 1015.4 |
| 20260510111517 | 36 | 0 | 5.0 | 11.0 | 0.00 | 0.00 | 0.00 | 66 | 1015.3 |
| 20260510110517 | 36 | 0 | 5.0 | 11.0 | 0.00 | 0.00 | 0.00 | 66 | 1015.0 |
| 20260510105517 | 36 | 0 | 4.0 | 11.0 | 0.00 | 0.00 | 0.00 | 66 | 1014.9 |
| 20260510104517 | 36 | 0 | 4.0 | 12.0 | 0.00 | 0.00 | 0.00 | 67 | 1014.8 |
| 20260510103617 | 36 | 338 | 1.0 | 5.0 | 0.00 | 0.00 | 0.00 | 66 | 1014.7 |
| 20260510102517 | 36 | 23 | 2.0 | 7.0 | 0.00 | 0.00 | 0.00 | 66 | 1014.6 |
| 20260510101517 | 36 | 0.0 | 3.0 | 0.00 | 0.00 | 0.00 | 65 | 1014.5 | |
| 20260510100517 | 36 | 0 | 2.0 | 7.0 | 0.00 | 0.00 | 0.00 | 66 | 1014.4 |
| 20260510095517 | 37 | 225 | 1.0 | 5.0 | 0.00 | 0.00 | 0.00 | 65 | 1014.3 |
| 20260510094517 | 37 | 23 | 2.0 | 5.0 | 0.00 | 0.00 | 0.00 | 66 | 1014.2 |
| 20260510093517 | 38 | 23 | 2.0 | 9.0 | 0.00 | 0.00 | 0.00 | 66 | 1014.1 |
| 20260510092517 | 38 | 45 | 3.0 | 13.0 | 0.00 | 0.00 | 0.00 | 65 | 1013.9 |
| 20260510091517 | 38 | 0 | 5.0 | 12.0 | 0.00 | 0.00 | 0.00 | 64 | 1014.0 |
| 20260510090537 | 38 | 0 | 4.0 | 10.0 | 0.00 | 0.00 | 0.00 | 63 | 1013.7 |
| 20260510085517 | 38 | 23 | 3.0 | 12.0 | 0.00 | 0.00 | 0.00 | 63 | 1013.7 |
| 20260510084517 | 38 | 0 | 4.0 | 11.0 | 0.00 | 0.00 | 0.00 | 62 | 1013.6 |
| 20260510083517 | 38 | 0 | 4.0 | 8.0 | 0.00 | 0.00 | 0.00 | 62 | 1013.3 |
| 20260510082517 | 38 | 0 | 3.0 | 6.0 | 0.00 | 0.00 | 0.00 | 61 | 1013.1 |
| 20260510081537 | 38 | 23 | 2.0 | 7.0 | 0.00 | 0.00 | 0.00 | 61 | 1013.1 |
| 20260510080517 | 38 | 0 | 3.0 | 5.0 | 0.00 | 0.00 | 0.00 | 60 | 1013.3 |
| 20260510075517 | 38 | 45 | 3.0 | 5.0 | 0.00 | 0.00 | 0.00 | 60 | 1013.2 |
| 20260510074516 | 38 | 68 | 2.0 | 5.0 | 0.00 | 0.00 | 0.00 | 60 | 1013.1 |
| 20260510073517 | 38 | 45 | 1.0 | 4.0 | 0.00 | 0.00 | 0.00 | 59 | 1013.1 |
| 20260510072516 | 38 | 315 | 2.0 | 6.0 | 0.00 | 0.00 | 0.00 | 59 | 1013.1 |
| 20260510071517 | 38 | 0 | 3.0 | 6.0 | 0.00 | 0.00 | 0.00 | 59 | 1013.0 |
| 20260510070517 | 38 | 0 | 3.0 | 8.0 | 0.00 | 0.00 | 0.00 | 59 | 1013.0 |
| 20260510065517 | 38 | 0 | 3.0 | 6.0 | 0.00 | 0.00 | 0.00 | 59 | 1012.7 |
| 20260510064516 | 38 | 315 | 2.0 | 5.0 | 0.00 | 0.00 | 0.00 | 60 | 1012.9 |
| 20260510063516 | 38 | 315 | 2.0 | 6.0 | 0.00 | 0.00 | 0.00 | 60 | 1012.7 |
| 20260510062516 | 37 | 23 | 2.0 | 6.0 | 0.00 | 0.00 | 0.00 | 62 | 1012.7 |
| 20260510061516 | 36 | 293 | 2.0 | 4.0 | 0.00 | 0.00 | 0.00 | 63 | 1012.7 |
| 20260510060517 | 36 | 293 | 1.0 | 4.0 | 0.00 | 0.00 | 0.00 | 63 | 1012.6 |
| 20260510055537 | 35 | 293 | 2.0 | 5.0 | 0.00 | 0.00 | 0.00 | 64 | 1012.5 |
| 20260510054516 | 34 | 315 | 2.0 | 3.0 | 0.00 | 0.00 | 0.00 | 64 | 1012.4 |
| 20260510053516 | 34 | 315 | 3.0 | 4.0 | 0.00 | 0.00 | 0.00 | 64 | 1012.2 |
| 20260510052516 | 34 | 315 | 2.0 | 3.0 | 0.00 | 0.00 | 0.00 | 64 | 1012.1 |
| 20260510051516 | 34 | 23 | 2.0 | 4.0 | 0.00 | 0.00 | 0.00 | 65 | 1012.2 |
| 20260510050516 | 34 | 23 | 2.0 | 3.0 | 0.00 | 0.00 | 0.00 | 63 | 1012.2 |
| 20260510045516 | 35 | 23 | 2.0 | 3.0 | 0.00 | 0.00 | 0.00 | 62 | 1012.0 |
| 20260510044516 | 36 | 23 | 2.0 | 3.0 | 0.00 | 0.00 | 0.00 | 61 | 1012.0 |
| 20260510043516 | 37 | 23 | 1.0 | 2.0 | 0.00 | 0.00 | 0.00 | 59 | 1012.0 |
| 20260510042516 | 38 | 0.0 | 2.0 | 0.00 | 0.00 | 0.00 | 57 | 1012.0 | |
| 20260510041517 | 39 | 23 | 1.0 | 3.0 | 0.00 | 0.00 | 0.00 | 56 | 1012.0 |
| 20260510040516 | 40 | 293 | 1.0 | 4.0 | 0.00 | 0.00 | 0.00 | 56 | 1011.9 |
| 20260510035517 | 40 | 0.0 | 0.0 | 0.00 | 0.00 | 0.00 | 54 | 1012.0 | |
| 20260510034516 | 41 | 0.0 | 2.0 | 0.00 | 0.00 | 0.00 | 51 | 1011.9 | |
| 20260510033516 | 42 | 0.0 | 2.0 | 0.00 | 0.00 | 0.00 | 50 | 1011.7 | |
| 20260510032516 | 43 | 270 | 1.0 | 2.0 | 0.00 | 0.00 | 0.00 | 49 | 1011.8 |
| 20260510031517 | 43 | 315 | 1.0 | 2.0 | 0.00 | 0.00 | 0.00 | 49 | 1011.9 |
| 20260510030516 | 43 | 270 | 1.0 | 4.0 | 0.00 | 0.00 | 0.00 | 48 | 1011.9 |
| 20260510025516 | 44 | 0 | 4.0 | 8.0 | 0.00 | 0.00 | 0.00 | 47 | 1011.7 |
| 20260510024516 | 44 | 45 | 4.0 | 11.0 | 0.00 | 0.00 | 0.00 | 46 | 1011.6 |
| 20260510023516 | 42 | 0 | 5.0 | 14.0 | 0.00 | 0.00 | 0.00 | 43 | 1011.6 |
| 20260510022516 | 44 | 270 | 2.0 | 3.0 | 0.00 | 0.00 | 0.00 | 38 | 1011.1 |
| 20260510021516 | 44 | 0.0 | 1.0 | 0.00 | 0.00 | 0.00 | 36 | 1010.9 | |
| 20260510020517 | 45 | 0.0 | 0.0 | 0.00 | 0.00 | 0.00 | 34 | 1010.8 | |
| 20260510015516 | 46 | 270 | 1.0 | 3.0 | 0.00 | 0.00 | 0.00 | 33 | 1010.6 |
| 20260510014517 | 46 | 0 | 1.0 | 7.0 | 0.00 | 0.00 | 0.00 | 32 | 1010.5 |
| 20260510013516 | 46 | 23 | 2.0 | 7.0 | 0.00 | 0.00 | 0.00 | 32 | 1010.4 |
| 20260510012536 | 47 | 225 | 1.0 | 3.0 | 0.00 | 0.00 | 0.00 | 32 | 1010.3 |
| 20260510011536 | 47 | 293 | 1.0 | 6.0 | 0.00 | 0.00 | 0.00 | 31 | 1010.0 |
| 20260510010516 | 48 | 270 | 2.0 | 13.0 | 0.00 | 0.00 | 0.00 | 31 | 1010.0 |
| 20260510005516 | 48 | 315 | 1.0 | 7.0 | 0.00 | 0.00 | 0.00 | 31 | 1009.8 |
| 20260510004516 | 48 | 0.0 | 2.0 | 0.00 | 0.00 | 0.00 | 31 | 1009.7 | |
| 20260510003516 | 48 | 315 | 2.0 | 8.0 | 0.00 | 0.00 | 0.00 | 31 | 1009.7 |
| 20260510002516 | 48 | 225 | 3.0 | 10.0 | 0.00 | 0.00 | 0.00 | 30 | 1009.5 |
| 20260510001517 | 49 | 270 | 3.0 | 8.0 | 0.00 | 0.00 | 0.00 | 29 | 1009.5 |
| 20260510000516 | 49 | 0 | 4.0 | 10.0 | 0.00 | 0.00 | 0.00 | 29 | 1009.2 |
| 20260509235536 | 50 | 0 | 3.0 | 10.0 | 0.00 | 0.00 | 0.00 | 28 | 1009.2 |
| 20260509234516 | 50 | 0 | 7.0 | 19.0 | 0.00 | 0.00 | 0.00 | 27 | 1009.1 |
| 20260509233516 | 50 | 0 | 6.0 | 14.0 | 0.00 | 0.00 | 0.00 | 28 | 1009.0 |
| 20260509232516 | 51 | 0 | 8.0 | 19.0 | 0.00 | 0.00 | 0.00 | 27 | 1009.0 |
| 20260509231516 | 52 | 0 | 6.0 | 12.0 | 0.00 | 0.00 | 0.00 | 26 | 1008.8 |
| 20260509230516 | 52 | 0 | 7.0 | 13.0 | 0.00 | 0.00 | 0.00 | 25 | 1008.8 |
| 20260509225556 | 52 | 0 | 6.0 | 19.0 | 0.00 | 0.00 | 0.00 | 26 | 1008.6 |
| 20260509224516 | 52 | 23 | 3.0 | 11.0 | 0.00 | 0.00 | 0.00 | 26 | 1008.7 |
| 20260509223516 | 52 | 0 | 5.0 | 16.0 | 0.00 | 0.00 | 0.00 | 27 | 1008.6 |
| 20260509222515 | 51 | 0 | 4.0 | 13.0 | 0.00 | 0.00 | 0.00 | 28 | 1008.3 |
| 20260509221516 | 51 | 0 | 5.0 | 14.0 | 0.00 | 0.00 | 0.00 | 27 | 1008.2 |
| 20260509220516 | 51 | 0 | 7.0 | 18.0 | 0.00 | 0.00 | 0.00 | 28 | 1008.2 |
| 20260509215516 | 51 | 0 | 5.0 | 11.0 | 0.00 | 0.00 | 0.00 | 29 | 1008.2 |
| 20260509214516 | 51 | 0 | 8.0 | 17.0 | 0.00 | 0.00 | 0.00 | 29 | 1008.1 |
| 20260509213515 | 51 | 0 | 7.0 | 16.0 | 0.00 | 0.00 | 0.00 | 30 | 1008.0 |
| 20260509212515 | 51 | 0 | 5.0 | 12.0 | 0.00 | 0.00 | 0.00 | 30 | 1008.0 |
| 20260509211516 | 51 | 0 | 4.0 | 12.0 | 0.00 | 0.00 | 0.00 | 30 | 1007.9 |
| 20260509210535 | 51 | 0 | 6.0 | 13.0 | 0.00 | 0.00 | 0.00 | 28 | 1007.8 |
| 20260509205516 | 50 | 0 | 6.0 | 19.0 | 0.00 | 0.00 | 0.00 | 29 | 1007.8 |
| 20260509204515 | 51 | 0 | 5.0 | 13.0 | 0.00 | 0.00 | 0.00 | 31 | 1007.8 |
| 20260509203516 | 51 | 0 | 8.0 | 17.0 | 0.00 | 0.00 | 0.00 | 30 | 1007.6 |
| 20260509202515 | 51 | 68 | 5.0 | 13.0 | 0.00 | 0.00 | 0.00 | 32 | 1007.6 |
| 20260509201515 | 50 | 0 | 6.0 | 17.0 | 0.00 | 0.00 | 0.00 | 32 | 1007.4 |
| 20260509200515 | 50 | 0 | 8.0 | 18.0 | 0.00 | 0.00 | 0.00 | 31 | 1007.3 |
| 20260509195517 | 50 | 0 | 3.0 | 8.0 | 0.00 | 0.00 | 0.00 | 30 | 1007.1 |
| 20260509194538 | 51 | 113 | 4.0 | 12.0 | 0.00 | 0.00 | 0.00 | 29 | 1007.0 |
| 20260509193517 | 50 | 0 | 6.0 | 15.0 | 0.00 | 0.00 | 0.00 | 31 | 1007.2 |
| 20260509192517 | 51 | 0 | 5.0 | 13.0 | 0.00 | 0.00 | 0.00 | 30 | 1007.1 |
| 20260509191517 | 50 | 45 | 6.0 | 13.0 | 0.00 | 0.00 | 0.00 | 33 | 1007.1 |
| 20260509190538 | 47 | 45 | 5.0 | 11.0 | 0.00 | 0.00 | 0.00 | 35 | 1007.3 |
| 20260509185537 | 47 | 0 | 5.0 | 12.0 | 0.00 | 0.00 | 0.00 | 33 | 1007.2 |
| 20260509184558 | 48 | 0 | 4.0 | 11.0 | 0.00 | 0.00 | 0.00 | 32 | 1007.0 |
| 20260509183517 | 48 | 0 | 8.0 | 24.0 | 0.00 | 0.00 | 0.00 | 32 | 1006.7 |
| 20260509182517 | 49 | 0 | 7.0 | 15.0 | 0.00 | 0.00 | 0.00 | 30 | 1006.7 |
| 20260509181517 | 50 | 0 | 5.0 | 14.0 | 0.00 | 0.00 | 0.00 | 29 | 1006.5 |
| 20260509180517 | 49 | 45 | 9.0 | 22.0 | 0.00 | 0.00 | 0.00 | 30 | 1006.2 |
| 20260509175517 | 47 | 0 | 6.0 | 16.0 | 0.00 | 0.00 | 0.00 | 33 | 1006.2 |
| 20260509174517 | 48 | 0 | 5.0 | 18.0 | 0.00 | 0.00 | 0.00 | 32 | 1006.1 |
| 20260509173517 | 48 | 90 | 4.0 | 12.0 | 0.00 | 0.00 | 0.00 | 32 | 1005.8 |
| 20260509172517 | 48 | 0 | 9.0 | 22.0 | 0.00 | 0.00 | 0.00 | 31 | 1005.6 |
| 20260509171517 | 47 | 0 | 6.0 | 15.0 | 0.00 | 0.00 | 0.00 | 34 | 1005.4 |
| 20260509170517 | 48 | 23 | 5.0 | 11.0 | 0.00 | 0.00 | 0.00 | 34 | 1005.2 |
| 20260509165517 | 48 | 23 | 6.0 | 15.0 | 0.00 | 0.00 | 0.00 | 33 | 1005.1 |
| 20260509164517 | 47 | 0 | 8.0 | 19.0 | 0.00 | 0.00 | 0.00 | 35 | 1004.9 |
| 20260509163537 | 48 | 0 | 7.0 | 18.0 | 0.00 | 0.00 | 0.00 | 35 | 1004.7 |
| 20260509162517 | 49 | 0 | 7.0 | 15.0 | 0.00 | 0.00 | 0.00 | 33 | 1004.5 |
| 20260509161537 | 50 | 338 | 9.0 | 22.0 | 0.00 | 0.00 | 0.00 | 31 | 1004.5 |
| 20260509160517 | 50 | 23 | 6.0 | 17.0 | 0.00 | 0.00 | 0.00 | 31 | 1004.1 |
| 20260509155537 | 51 | 45 | 8.0 | 21.0 | 0.00 | 0.00 | 0.00 | 31 | 1003.8 |
| 20260509154517 | 50 | 45 | 8.0 | 15.0 | 0.00 | 0.00 | 0.00 | 32 | 1003.9 |
| 20260509153517 | 49 | 23 | 6.0 | 20.0 | 0.00 | 0.00 | 0.00 | 34 | 1003.6 |
| 20260509152517 | 49 | 23 | 8.0 | 19.0 | 0.00 | 0.00 | 0.00 | 33 | 1003.6 |
| 20260509151517 | 50 | 0 | 6.0 | 18.0 | 0.00 | 0.00 | 0.00 | 34 | 1003.3 |
| 20260509150517 | 51 | 315 | 8.0 | 20.0 | 0.00 | 0.00 | 0.00 | 32 | 1002.9 |
| 20260509145517 | 50 | 45 | 7.0 | 16.0 | 0.00 | 0.00 | 0.00 | 32 | 1002.7 |
| 20260509144517 | 49 | 23 | 10.0 | 20.0 | 0.00 | 0.00 | 0.00 | 34 | 1002.7 |
| 20260509143537 | 50 | 0 | 7.0 | 22.0 | 0.00 | 0.00 | 0.00 | 34 | 1002.6 |